Terminal Aerodrome Forecast
Issued by NWS

Home | Current Version | Previous Version | Text Only | Print | Product List | Glossary On
Versions: 1 2 3 4 5 6 7 8 9 10 11 12
000
FTAK31 PANC 180531
TAFATK
TAF
PATK 180531Z 1806/1906 VRB05KT P6SM SCT100 BKN200
     FM180800 VRB03KT P6SM VCSH SCT040 BKN060
     FM190000 VRB04KT P6SM SCT050 BKN090=

USA.gov is the U.S. government's official web portal to all federal, state and local government web resources and services.